Find Starlink 32400

NORAD ID: 61669 Int'l Des: 2024-193 Owner: SPXS Country: US Constellation: starlink operational
LEOCIRCULAR

Live Position

Loading 3D Globe...

About Starlink 32400

Description loading...

Upcoming Passes

Passes for default location (London). Set your location on the main map for personalized predictions.

Altitude History

Loading altitude history...

Two-Line Element Set

1 61669U 24193J 26109.67951066 -.00000384 00000-0 -82795-6 0 9999
2 61669 53.1618 258.3919 0001183 89.0736 271.0400 15.30192154 82833
Epoch: Apr 19, 2026 • Age: 11 hours

Current Status

Altitude 476.6 km
Velocity 7.63 km/s
Sub-Earth Point 30.95°N, 22.72°E
Launch Date Oct 26, 2024
Age 1.4 years
Type internet

Technical Details

Classification Payload
Mass 730.00 kg
Dry Mass 700.00 kg
Total Mass 730.00 kg
Length 0.30 m
Diameter 4.10 m
Span 29.00 m
Shape Box + pan
Manufacturer SPXS
Bus Type Starlink V2M
Phase Status In Orbit
Owner/State SPXS/US

Most Searched